timestamp,gas_concentrations,,corrected_fluxes_and_quality_flags,,,,,,,,,,storage_terms,,,turbulence,,,footprint,,
ISOdate,CO2_1_1_1,H2O_1_1_1,Tau_1_1_1,QcTau_1_1_1,H_1_1_1,QcH_1_1_1,LE_1_1_1, QcLE_1_1_1,Fc_1_1_1, QcFc_1_1_1,E_1_1_1, QcE_1_1_1,Sa_1_1_1,Sw_1_1_1,Sc_1_1_1,ustar_1_1_1,MO_length_1_1_1,ZL_1_1_1,Fetchmax_1_1_1,Fetch70_1_1_1,Fetch90_1_1_1
yyyymmddHHMM,[µmol+1mol_a-1],[mmol+1mol_a-1],[kg+1m-1s-2],[#],[W+1m-2],[#],[W+1m-2],[#],[µmol+1s-1m-2],[#],[mmol+1s-1m-2],[#],[W+1m-2],[W+1m-2],[µmol+1s-1m-2],[m+1s-1],[m],[#],[m],[m],[m]
201803020030,417.88060856431224,3.3920934336600124,4.25879112745401536E-002,0,-8.6059844321872205,1,-1.7642730091960621,1,-3.96095120314183813E-002,1,-3.90873772195637556E-002,1,-9999.,-9999.,-9999.,0.18665024616396408,63.582165071372302,0.33971790636184773,228.28738244734771,2208.0000000000000,-9999.
201803020100,417.73340755077032,3.4337130641565192,5.55287198616791697E-002,0,-14.511819160564389,0,-0.76487815467378073,1,0.21577087666322958,0,-1.69377480650643904E-002,1,-12.105329428261012,1.5477035076011969,-0.12121706333651613,0.21290136535572621,55.970121522423945,0.38592019121034332,94.085237528180940,172.01782114897577,257.71404183222762
201803020130,417.73947933902377,3.4076424403657875,4.45065246802050021E-002,0,-6.0585317112446635,1,0.74313865843785032,1,0.33053950480698752,0,1.64482153441624368E-002,1,-12.556499588729356,-0.97209524279379744,5.01098314489236210E-003,0.19039372510223601,95.898209105895191,0.22523882564009401,203.12432232581793,1857.0000000000000,9110.0000000000000
201803020200,417.55355649782973,3.3568789626627495,2.74785655981733441E-002,0,-11.228115458286386,0,-0.64493794531409854,2,0.52222107554928898,0,-1.42679567136956842E-002,2,-12.037635350345539,-1.8978410522435218,-0.15377476445192118,0.14943786206344295,25.025940036383368,0.86310444157531563,440.72151386393028,4548.0000000000000,-9999.
201803020230,417.46136533212200,3.2752725168082302,8.15138484918229711E-002,0,-12.412531478570825,0,3.5715525413376019,1,0.16450274178323954,0,7.89785790627379886E-002,1,-11.274022024718994,-3.0586772582530579,-7.64101001966414478E-002,0.25710944826065324,115.32215899832610,0.18730138411919192,116.72882463574321,213.41752018330320,319.73833499853959
201803020300,417.30325869882387,3.1308699632478629,9.51080887616872206E-002,0,-23.450363007739064,0,2.5533585086885853,0,0.99798752340400010,0,5.64417652568546188E-002,0,-9.6426684621832059,-5.4248127087388180,-0.13129517239614835,0.27744735660484837,76.725108310975060,0.28152452926430410,105.22710678773149,192.38871167237551,288.23334789854812
201803020330,417.24283105748225,3.0694017955929676,0.12438316977169801,0,-25.079259059279867,0,3.8258582545450635,0,0.17520915413290217,0,8.45470071451401989E-002,0,-7.0570059601335675,-2.3132799099614179,-5.02554220919717715E-002,0.31704675577375857,107.08330249446614,0.20171212034776614,113.31783082710848,207.18113562044078,310.39509450531494
201803020400,417.03111029261777,2.9972716773076811,4.26235703474910632E-002,0,-15.923811124668841,0,1.7550254339379210,0,2.90522846844145644E-002,0,3.87790995608725680E-002,0,-3.2564330010018381,-2.7169601361501079,-0.17621561189240428,0.18552167804600098,33.797216721764734,0.63910588193761031,249.34686001111214,2435.0000000000000,-9999.
201803020430,416.91475057803899,2.9573670833617838,8.90288543524437176E-002,0,-33.849960820136495,0,3.1547546117067986,0,0.26021040621410485,0,6.96990986567811027E-002,0,-3.1212435707329087,-1.5043498459627607,-9.69148159246038254E-002,0.26802701107880028,47.949970198455830,0.45046951876302943,105.22630050981071,192.38723753918720,288.23113937840975
201803020500,416.83459082624506,2.9592819929482501,7.77157739001889947E-002,0,-32.551270420243426,0,0.74865290564632059,0,0.27673451349142786,0,1.65449029350633638E-002,0,7.2226738165994187,7.21058809282832808E-002,-6.67056294477973016E-002,0.25052935421842065,40.727922127611592,0.53034868639557309,100.25902656510686,183.30547653749869,274.62500648435071
201803020530,417.07675814572229,2.8956031794303372,0.12925274406158888,0,-52.142751466581473,0,-1.4537053369987258,0,0.60497336153068115,0,-3.21260118222151531E-002,0,-0.19394810230932816,-2.3984953320198255,0.20157649028411223,0.32304243228376633,54.517994329081901,0.39619946158726843,113.14040803047159,206.85675016208984,309.90910597793544
201803020600,416.82340244529559,2.9431051608699277,0.11179611029274863,0,-54.014374580776320,0,-8.1431204803017199,0,-0.31264161049665784,0,-0.18001491457722621,0,8.1035619015240652,1.7864115919529837,-0.21062897345285905,0.30062520773938894,42.415995537647881,0.50924184912336024,108.82324313040769,198.96359583564845,298.08372247589091
201803020630,417.22464869135894,3.0466907627157589,0.17155720855112483,0,-65.792820163886518,0,-9.2098619914083493,0,0.19081791602502562,0,-0.20363977332158134,0,5.4200794593505082,3.8919143257755264,0.33333762942929013,0.37254786854080291,66.278517983099462,0.32589744999288978,113.22909691982383,207.01890173769621,310.15203858607953
201803020700,417.53521401259968,3.1077112740248323,0.13665176980830979,0,-60.898025811992333,0,-5.5249593249171509,0,-7.37726315589481985E-002,0,-0.12216618379830729,0,0.73415929162590610,2.2931657924746451,0.25806820094479960,0.33245751678250784,50.901061756378432,0.42435264127458594,106.21912690252461,194.20244083080547,290.95064468260131
201803020730,417.83624295978620,3.1251287235650418,0.24121365811919135,0,-68.823613964763439,0,-2.9661629382134236,0,0.11286536100009670,0,-6.55867286846412989E-002,0,-5.64977865114131561E-002,0.65482978435647921,0.25024942545456785,0.44161036532851677,105.59205980183074,0.20456083573459663,114.11565370540251,208.63981029451847,312.58045497241039
201803020800,418.05202456326060,3.1045867920734422,0.27630740952051763,0,-71.717051335076675,0,-0.71995622639832102,0,0.13763984889853820,0,-1.59159513936177055E-002,0,-5.5842757710174080,-0.77345943086522884,0.17961276185584413,0.47233911885602103,124.02824651044203,0.17415387710235411,113.39042041757899,207.31385254308333,310.59392863962319
201803020830,418.34068496126599,3.0650227298624517,0.19305823873707548,0,-55.675596100155495,0,0.51108181565441380,1,-0.56430434943630425,0,1.12970062087087968E-002,1,-3.1702140039939515,-1.4909660945711654,0.24045124822915098,0.39467538341991731,93.219940810734002,0.23171008061306156,112.56722226821944,205.80878378047024,308.33906137379182
201803020900,418.61189131575225,3.0499688526294277,0.14253833962701681,0,-44.962363450815424,0,-0.59621545353808114,1,-0.28362721883875119,0,-1.31777351168867549E-002,1,-2.0953408467087087,-0.56755049322263595,0.22599224770105494,0.33906546258747644,73.192045225618699,0.29511403778124734,110.86949227296620,202.70479188593683,303.68871589440175
201803020930,418.60947219899788,3.0477512475705701,0.13347850604497546,0,-44.487624043518608,0,-2.5421795158635838,0,0.62133887216401318,0,-5.61816779880100758E-002,0,-2.9062198212781656,-8.36698921928899220E-002,-2.01711345487773624E-003,0.32800713048260954,66.978268159787063,0.32249266207465749,105.83562788203220,193.50128231060606,289.90018145153175
201803021000,418.59361763782238,3.0611780148812948,0.16649418029952728,0,-57.688690423841066,0,-3.8523907688641423,0,1.0271611721220935,0,-8.51439787558235656E-002,0,2.0801987124728458,0.50647464445410706,-1.32179492177578722E-002,0.36636170443832600,71.980953935416935,0.30007937960060999,109.01271781202180,199.31001598348931,298.60272298337242
201803021030,418.49598124789316,3.0778405527540209,0.10975963766689439,0,-42.548294704952539,0,-2.3859674173098209,0,0.17948644115379020,0,-5.27340826324578446E-002,0,0.19430745204616093,0.62867970904370785,-8.14192118134253739E-002,0.29742712987833869,52.230390624833340,0.41355233498349742,96.116957944178850,175.73245405341169,263.27923881781254
201803021100,418.44088380935659,3.0907553910955325,0.12169166246696315,0,-46.838047337422694,0,-3.1829983409049687,0,0.71838775185926940,0,-7.03490509851211337E-002,0,-0.29965185304009312,0.48743703078261491,-4.59602926368482684E-002,0.31312851900419225,55.375367593004633,0.39006513074106708,107.97339055910082,197.40979428872379,295.75584461888485
201803021130,418.44806996545026,3.0644340889118595,6.87660176400131107E-002,0,-35.110799221544802,0,-2.3607040300071738,0,0.31339797002648928,0,-5.21617506799934363E-002,0,-6.6008494885627931,-0.99497324616977978,6.00221151992608431E-003,0.23523142990738913,31.324097943975552,0.68956494896141929,103.67017739118232,189.54214817832090,283.96867707267160
201803021200,418.31396047156517,3.0485944082579546,1.64418336564156053E-002,0,-9.6443947747451126,0,-0.98103918710739091,0,6.48393265564357613E-002,0,-2.16684587432467227E-002,0,-10.049054220151824,-0.60007076435314577,-0.11221663368647808,0.11491869952333081,13.298714190963731,1.6242171754226333,577.21583830727980,5566.0000000000000,-9999.
201803021230,418.00957475643048,3.1089414997063902,7.81832856771760148E-002,0,-31.825965113628168,0,-2.5343296136164244,0,0.38798256329918535,0,-5.59966927370915205E-002,0,9.3637607025003717,2.2826422115985783,-0.25439293577526001,0.25074712589546672,41.871694798508450,0.51586161257483742,108.49337641827067,198.36049428027010,297.18016644644177
201803021300,417.83168403997729,3.1242139456125799,2.29019734540572215E-002,0,-18.035977021726303,0,-1.0564379113096030,0,0.23295491191222717,0,-2.33445553720884394E-002,0,2.5149793543804617,0.57752985673190893,-0.14864857778747498,0.13572297379823603,11.718802898250155,1.8431916798622239,639.70851996098907,6098.0000000000000,-9999.
201803021330,417.99571234528929,3.1283212718140221,1.23782759705046933E-002,0,-11.335186476180198,0,0.25881118258687769,1,6.01650945583052099E-002,0,5.72031439918229984E-003,1,5.6508043671504637,0.15517908571822650,0.13697132374048382,9.98149609125729420E-002,7.4178653982749285,2.9118889114681452,593.22821167575069,5055.0000000000000,-9999.
201803021400,418.39027105459462,3.1605397469758403,3.06198978834714246E-002,0,-6.1649832686336987,1,1.1448658599144714,0,0.31472970876609774,0,2.53198755658750781E-002,0,15.985387355117215,1.2138420913090979,0.32875760445241636,0.15716050627983241,53.248555857200877,0.40564480392530688,181.64164319423276,1721.0000000000000,8682.0000000000000
201803021430,419.29233658233636,3.2061847991947330,3.74956136362279979E-002,1,18.089385232667372,1,2.5704668904426575,0,1.3915958596932236,0,5.68898345494224869E-002,0,18.621970570982644,1.7138855554390489,0.74963327081958586,0.17414549271665239,-24.693940523983319,-0.87470851316830489,54.413027703288186,177.00000000000000,410.00000000000000
201803021500,419.55219486218789,3.2570124775632423,5.09832854305557887E-002,1,78.764832422291875,1,4.6874249995341302,1,2.4567299134024774,1,0.10384012790220931,1,23.976216709022893,1.9000044573508901,0.21518985278389860,0.20342431504690056,-9.0409137611069106,-2.3891390373527286,92.832893232635541,169.72813636199157,254.28367678612918
201803021530,419.54852612077440,3.3314629235877140,7.22072684603549952E-002,1,160.49473836573313,1,9.2020029922571567,1,-0.76174419510366675,1,0.20408482154427979,1,29.065331685089209,2.7682672379389368,-3.02542329856756408E-003,0.24260157950631769,-7.5275259496374209,-2.8694686865928918,94.756462675409963,173.24503479439119,259.55263150066531
201803021600,419.28783949050313,3.3093568155062196,4.82243399383528309E-002,0,63.518794304089774,0,5.4093303648988522,0,0.50150820482543113,0,0.12003014363685809,0,12.733611642939479,-0.82016295384917437,-0.21461172121153554,0.19842741619715068,-10.409174410316965,-2.0750925240133689,70.038067042262156,212.00000000000000,466.00000000000000
201803021630,418.60197136735360,3.2881654811693606,0.11028418349079008,1,203.58675737301039,0,-0.40135440159124164,2,-1.0390936531298074,0,-8.91562871017688094E-003,2,27.670991708431043,-0.78211877061413293,-0.56231409304309221,0.30069178982905664,-11.302270708055918,-1.9111203896933890,88.663669241432501,162.10546520028069,242.86352635333682
201803021700,418.19630986233966,3.1591776042871307,0.16066433515883141,0,148.81967323747790,0,24.762899094181034,1,1.1379960660401665,0,0.55040860547128689,1,15.021922741906369,-4.7478556531483935,-0.33189150568782289,0.36330142004986488,-27.274211077827488,-0.79195691264410850,79.832214570935761,145.95874941461068,218.67280378955417
201803021730,417.79283388144194,3.0288539495444438,0.11087825151367278,0,211.55492472256074,0,18.753854382440434,0,0.32252260238811914,0,0.41700909395698205,0,9.8850676201298544,-4.7888861125853213,-0.32967341801470385,0.30199717006193016,-11.021859775210093,-1.9597418621294584,70.570339609415484,129.02508806143859,193.30309336539591
201803021800,418.23459351034086,2.9563785408848697,0.40536226690104749,1,262.75685746971021,0,24.794429392080758,1,-0.15961944219858992,0,0.55161508431473416,1,13.073499801777597,-2.6568037971630205,0.36027725952771117,0.57796707746805243,-62.210101733922329,-0.34721049151124944,113.74984338053521,207.97099235144188,311.57844381909558
201803021830,418.17960717267289,2.8360457580609277,0.21122336511819995,1,301.17587126522977,0,12.316057300775867,2,-0.24795092764438920,0,0.27412570643685452,2,11.264101548452794,-4.4014796879193749,-4.47659287832785149E-002,0.41756254758997841,-20.466228920558851,-1.0553971659284163,93.903243942368832,171.68507883023409,257.21553320516341
201803021900,417.98734202164468,2.6393995295251780,0.23510417512423148,1,226.92461515915994,0,25.359707519273883,0,0.53301392519772506,0,0.56450990950121149,0,2.8280320824225313,-7.1875902881608091,-0.15643199887531181,0.44065475330178772,-31.918125114927221,-0.67673147850085591,97.349159353322136,177.98531121980869,266.65442937740028
201803021930,417.87245801043832,2.5085260900542807,7.89209836162389766E-002,0,290.84503333408060,0,-1.7614367803537292,2,1.1679086696896022,0,-3.92229164544964093E-002,2,8.3372223269539774,-4.7748014569767285,-9.33332125297126614E-002,0.25549239374169719,-4.8531281393401162,-4.4507376232058382,58.298891438334898,106.58896702704575,159.68969565933580
201803022000,418.07894158134280,2.3474643730781426,0.10301163511299062,1,227.85529622342568,0,51.215942018196365,1,2.5300927712018204,0,1.1407330023522066,1,6.0668509319086290,-5.8684779454383307,0.16757047302340114,0.29204108236836945,-9.2505803206649961,-2.3349886440905192,66.833343894336764,122.19266804062123,183.06688314427393
201803022030,417.85267798501587,2.2672626943619041,9.58411848437734082E-002,0,168.87937803564824,0,31.786725862211188,1,0.79132733321695525,0,0.70805060461422642,1,2.2684222814010147,-2.9210603920074569,-0.18356516310126275,0.28173351400719848,-11.205739946765735,-1.9275835511633765,73.962736167493190,135.22747091899393,202.59539310814861
201803022100,417.91465902150844,2.3298482578311357,0.12701445746321902,1,191.97572124313851,0,11.056139520079020,1,-1.1109798228984467,0,0.24630204156419092,1,2.6297749538190844,2.2783525990792861,5.02655114287858251E-002,0.32439660549864646,-15.048616502034688,-1.4353478937468780,81.600615426488091,149.19195018108564,223.51672770405193
201803022130,417.82944780403733,2.5011669643070173,0.27029382751520159,1,121.46924831488646,0,17.329550915553344,0,-1.0601068939173226,0,0.38605721359654982,0,-7.87222268097568546E-003,6.2354145499195228,-6.90910319200770534E-002,0.47328751408686087,-73.853716769874012,-0.29247004679947197,107.34553861732559,196.26188069605223,294.03606087981905
201803022200,417.91157558402381,2.4882378202966642,0.27577640512208623,1,76.377558154567282,0,9.5651415028542868,0,-0.61254969102138013,0,0.21305952244615600,0,-3.1348807568764330,-0.47089872137294053,6.66280912592292773E-002,0.47792889023560825,-120.95124631434985,-0.17858435244116491,119.74537389036321,218.93273429978854,328.00113074863015
201803022230,417.61058470739431,2.4023850701012051,0.18355568545792289,0,34.787427655920204,0,14.633061856048743,0,-0.41467318436506528,0,0.32589613649643479,0,-3.7504896344292882,-3.1284374644589241,-0.24427026390623430,0.38984018527338216,-144.09409011464342,-0.14990205346253074,117.78301413080638,215.34491479677368,322.62592334680124
201803022300,417.59608538344315,2.4055289766929802,0.19869706677671198,0,13.868768780238382,1,0.88741398630131019,2,-1.0358674121267022,1,1.97608285024461518E-002,2,-3.7289256843951151,0.11464377060072374,-1.17735507505466394E-002,0.40548748259829609,-406.72288493429880,-5.31074124424771934E-002,132.44734834808801,242.15599469548354,362.79380665349231
201803022330,417.91681770659108,2.4895812351741284,7.80800826806406223E-002,0,-5.0948606018070244,0,-2.9628179460968576,0,-0.65694813516378270,1,-6.59537019648748918E-002,0,-8.2996406917446865,3.0711819155113482,0.26087538032732982,0.25397644220836013,272.13480926481998,7.93724259617982070E-002,110.65542362167521,202.31340611768229,303.10234869373170
201803030000,418.04348120573673,2.6245916374251150,4.06959687549956275E-002,0,-11.335548979724496,0,2.5594963618466169,0,0.25892822938363569,0,5.69395066890081777E-002,0,-15.826539600011706,4.9489180330975397,0.10328891008372391,0.18312775480425658,45.857000220460698,0.47102950250030551,246.72981154475028,2435.0000000000000,-9999.
